This demonstration page uses our WeatherBlox Daily Observations layout. Learn more.

Hourly Observations for February 7, 2019

Temp ( °F °C ) Dew Point ( °F °C ) Humidity (%) Winds ( mph kmh ) Pressure ( in mb ) Visibility ( mi km ) Precip ( " mm )
12:15 am 00:15 Windy with Snow Likely 5 -15 2 -16.9 86 86 N 21 33 30.25 1024 2 3.21868 0 0
12:35 am 00:35 Cloudy with Light Snow 4 -15.3 1 -17.5 83 83 N 15 24 30.27 1025 3 4.82802 0 0
12:55 am 00:55 Cloudy with Light Snow 4 -15.3 1 -17.5 83 83 N 15 24 30.27 1025 5 8.0467 0 0
1:15 am 01:15 Cloudy 4 -15.5 0 -17.8 83 83 N 15 24 30.3 1026 10 16.0934 0 0
1:35 am 01:35 Cloudy 4 -15.5 -1 -18.1 81 81 N 17 28 30.3 1026 10 16.0934 0 0
1:55 am 01:55 Cloudy 4 -15.5 -1 -18.5 78 78 NNW 16 26 30.31 1027 10 16.0934 0 0
2:15 am 02:15 Cloudy 4 -15.6 -1 -18.5 79 79 N 17 28 30.3 1026 10 16.0934 0 0
2:35 am 02:35 Cloudy 4 -15.7 -2 -18.7 78 78 NNW 17 28 30.29 1026 7 11.26538 0 0
2:55 am 02:55 Cloudy 4 -15.8 -3 -19.2 75 75 NNW 20 31 30.3 1026 10 16.0934 0 0
3:15 am 03:15 Cloudy 3 -16 -3 -19.6 74 74 NNW 17 28 30.3 1026 10 16.0934 0 0
3:35 am 03:35 Cloudy 4 -15.8 -3 -19.4 74 74 NNW 16 26 30.3 1026 10 16.0934 0 0
3:55 am 03:55 Cloudy 3 -16.1 -4 -19.9 73 73 NNW 15 24 30.31 1026 10 16.0934 0 0
4:15 am 04:15 Cloudy 3 -16.3 -4 -20 73 73 NNW 18 30 30.32 1027 10 16.0934 0 0
4:35 am 04:35 Mostly Cloudy with Scattered Snow Showers 2 -16.6 -5 -20.3 73 73 NNW 14 22 30.33 1027 10 16.0934 0 0
4:55 am 04:55 Partly Cloudy 2 -16.9 -5 -20.6 73 73 NNW 13 20 30.34 1027 10 16.0934 0 0
5:15 am 05:15 Mostly Cloudy 2 -16.6 -4 -20.1 75 75 NNW 15 24 30.34 1028 10 16.0934 0 0
5:35 am 05:35 Cloudy 2 -16.6 -5 -20.5 72 72 NNW 18 30 30.37 1028 10 16.0934 0 0
5:55 am 05:55 Cloudy 2 -16.7 -4 -20.2 75 75 NNW 15 24 30.37 1028 10 16.0934 0 0
6:15 am 06:15 Cloudy 2 -16.9 -5 -20.8 72 72 NNW 17 28 30.39 1029 7 11.26538 0 0
6:35 am 06:35 Cloudy 2 -16.8 -4 -20.2 75 75 NNW 15 24 30.4 1029 10 16.0934 0 0
6:55 am 06:55 Cloudy with Light Snow 1 -17 -4 -20 78 78 NNW 13 20 30.4 1029 2.5 4.02335 0 0
7:15 am 07:15 Cloudy with Light Snow 1 -17 -3 -19.7 80 80 NW 13 20 30.4 1029 3 4.82802 0 0
7:35 am 07:35 Cloudy with Light Snow 2 -16.9 -3 -19.3 82 82 NW 16 26 30.42 1030 2 3.21868 0 0
7:55 am 07:55 Cloudy with Light Snow 2 -16.7 -3 -19.4 80 80 NW 14 22 30.42 1030 3 4.82802 0 0
8:15 am 08:15 Mostly Cloudy 2 -16.8 -4 -20.2 75 75 NNW 17 28 30.43 1030 10 16.0934 0 0
8:35 am 08:35 Partly Cloudy 1 -17 -5 -20.5 74 74 NW 15 24 30.42 1030 10 16.0934 0 0
8:55 am 08:55 Partly Cloudy 1 -17.1 -6 -21 72 72 NW 16 26 30.42 1030 10 16.0934 0 0
9:15 am 09:15 Sunny 2 -16.5 -5 -20.7 70 70 NW 21 33 30.42 1030 10 16.0934 0 0
9:35 am 09:35 Sunny 3 -16.2 -6 -21 67 67 NW 18 30 30.42 1030 10 16.0934 0 0
9:55 am 09:55 Sunny 3 -16 -5 -20.8 67 67 NW 22 35 30.42 1030 10 16.0934 0 0
10:15 am 10:15 Sunny 4 -15.5 -5 -20.7 65 65 NNW 22 35 30.41 1030 10 16.0934 0 0
10:35 am 10:35 Sunny 5 -15.2 -5 -20.4 65 65 NW 20 31 30.43 1030 10 16.0934 0 0
10:55 am 10:55 Sunny 5 -15 -5 -20.4 64 64 NW 25 41 30.44 1031 10 16.0934 0 0
11:15 am 11:15 Partly Cloudy 6 -14.5 -4 -19.9 64 64 NW 22 35 30.44 1031 10 16.0934 0 0
11:35 am 11:35 Partly Cloudy 6 -14.2 -3 -19.6 64 64 NW 24 39 30.44 1031 10 16.0934 0 0
11:55 am 11:55 Mostly Cloudy 8 -13.6 -3 -19.2 63 63 NW 21 33 30.43 1031 10 16.0934 0 0
12:15 pm 12:15 Partly Cloudy 8 -13.5 -3 -19.2 62 62 NW 23 37 30.43 1031 10 16.0934 0 0
12:35 pm 12:35 Sunny 8 -13.2 -3 -19.5 59 59 NW 23 37 30.43 1030 10 16.0934 0 0
12:55 pm 12:55 Sunny 9 -13 -3 -19.2 60 60 NW 23 37 30.43 1030 10 16.0934 0 0
1:15 pm 13:15 Sunny 9 -12.7 -1 -18.6 62 62 NW 17 28 30.43 1031 10 16.0934 0 0
1:35 pm 13:35 Partly Cloudy 10 -12.5 -2 -19.1 58 58 NW 24 39 30.43 1031 10 16.0934 0 0
1:55 pm 13:55 Partly Cloudy 10 -12.5 -3 -19.2 58 58 NW 23 37 30.43 1031 10 16.0934 0 0
2:15 pm 14:15 Partly Cloudy 10 -12 -1 -18.4 59 59 NW 22 35 30.43 1030 10 16.0934 0 0
2:35 pm 14:35 Partly Cloudy 11 -11.7 -1 -18.3 58 58 NW 17 28 30.42 1030 10 16.0934 0 0
2:55 pm 14:55 Sunny 10 -12 -2 -18.9 57 57 NNW 22 35 30.44 1031 10 16.0934 0 0
3:15 pm 15:15 Partly Cloudy 10 -12 -2 -18.9 57 57 NW 21 33 30.44 1031 10 16.0934 0 0
3:35 pm 15:35 Partly Cloudy 11 -11.7 -2 -18.7 56 56 NW 20 31 30.44 1031 10 16.0934 0 0
3:55 pm 15:55 Partly Cloudy 11 -11.8 -2 -19 55 55 NW 18 30 30.44 1031 10 16.0934 0 0
4:15 pm 16:15 Partly Cloudy 11 -11.7 -2 -19.1 55 55 NW 18 30 30.45 1031 10 16.0934 0 0
4:35 pm 16:35 Sunny 11 -11.8 -2 -18.9 56 56 NW 17 28 30.46 1032 10 16.0934 0 0
4:55 pm 16:55 Sunny 11 -11.9 -2 -19 56 56 NW 15 24 30.49 1032 10 16.0934 0 0
5:15 pm 17:15 Sunny 10 -12.1 -3 -19.2 56 56 NW 16 26 30.49 1032 10 16.0934 0 0
5:35 pm 17:35 Sunny 10 -12.5 -3 -19.4 57 57 NW 16 26 30.5 1033 10 16.0934 0 0
6:15 pm 18:15 Clear 8 -13.5 -3 -19.6 60 60 NW 10 17 30.53 1034 10 16.0934 0 0
6:35 pm 18:35 Clear 7 -14.1 -4 -19.9 62 62 NNW 8 13 30.55 1035 10 16.0934 0 0
6:55 pm 18:55 Clear 6 -14.7 -4 -20 64 64 NW 9 15 30.57 1035 10 16.0934 0 0
7:15 pm 19:15 Clear 5 -15.1 -4 -20.2 65 65 NNW 7 11 30.58 1036 10 16.0934 0 0
7:35 pm 19:35 Clear 4 -15.7 -5 -20.5 67 67 NNW 6 9 30.6 1036 10 16.0934 0 0
7:55 pm 19:55 Clear 3 -16.1 -5 -20.7 68 68 NNW 5 7 30.61 1037 10 16.0934 0 0
8:15 pm 20:15 Clear 1 -17.5 -6 -21.2 73 73 WNW 5 7 30.64 1037 10 16.0934 0 0
8:35 pm 20:35 Clear 1 -17.5 -6 -21.3 72 72 WNW 6 9 30.65 1038 10 16.0934 0 0
8:55 pm 20:55 Clear 0 -17.9 -7 -21.8 72 72 WNW 7 11 30.65 1038 10 16.0934 0 0
9:15 pm 21:15 Clear 1 -17.5 -7 -21.5 71 71 WNW 6 9 30.65 1038 10 16.0934 0 0
9:35 pm 21:35 Clear -1 -18.3 -7 -21.7 75 75 NW 8 13 30.66 1038 10 16.0934 0 0
9:55 pm 21:55 Clear -1 -18.1 -7 -21.9 72 72 NW 7 11 30.66 1038 10 16.0934 0 0
10:15 pm 22:15 Clear -1 -18.4 -8 -22 74 74 WNW 5 7 30.68 1039 10 16.0934 0 0
10:35 pm 22:35 Clear 0 -18 -7 -21.8 72 72 W 6 9 30.68 1039 10 16.0934 0 0
10:55 pm 22:55 Clear -1 -18.3 -8 -22 73 73 WNW 5 7 30.69 1039 10 16.0934 0 0
11:15 pm 23:15 Clear -3 -19.4 -9 -22.9 74 74 WNW 5 7 30.7 1040 10 16.0934 0 0
11:35 pm 23:35 Clear -2 -19 -8 -22.3 75 75 W 6 9 30.71 1040 10 16.0934 0 0
11:55 pm 23:55 Clear -2 -18.9 -8 -22.2 75 75 W 5 7 30.7 1040 10 16.0934 0 0

Powered by AerisWeather